Location: Baili�vre
(50.0696°N, 4.2409°E)
Time: 15:53:05
(UTC+00:00)

Landsat 7 - Pass Details

Date: 08 August 2020
Orbit: 701 x 703 km, 98.1° (Epoch: 25 September)

Event Time Altitude Azimuth Distance (km) Brightness Sun altitude
Exits shadow 21:09:17 14° 186° (S) 1,915 5.7 -15.4°
Maximum altitude 21:13:16 51° 260° (W) 884 4.5 -15.8°
Drops below altitude 10° 21:17:55 10° 337° (NNW) 2,182 7.6 -16.3°
Sets 21:20:15 0° 343° (NNW) 3,106 8.5 -16.5°
